GFSGBSN_250_spd_000.txt.gz
Wind_Speed
21 19 12 10 8 9 8 9 11 12 13 17 21 24 25 27 24 24 25 26 27 27 27 28 30 35 37 42 52 63 65 73 73 76 73 98 61 75 85 100 89 90 89 87 80 80 76
15 13 8 8 10 11 12 13 17 21 20 22 25 25 25 24 23 27 27 24 24 23 24 23 25 24 25 28 34 38 40 44 40 57 64 67 82 102 64 63 80 86 75 65 65 65 45
13 10 10 14 15 21 21 21 22 26 25 24 26 27 25 24 24 24 23 19 17 16 15 15 15 16 14 15 20 21 20 22 24 28 59 70 63 57 69 77 68 59 42 44 35 35 18
9 11 16 19 21 28 25 29 32 31 30 28 26 26 25 23 22 21 18 15 14 13 11 8 9 9 10 15 15 13 15 16 15 19 27 33 35 33 41 52 35 26 20 22 19 15 14
10 17 24 31 29 34 32 37 35 35 35 32 31 29 28 26 24 22 22 22 16 14 13 11 10 11 11 13 14 13 12 12 12 19 25 26 23 22 23 18 15 14 11 12 13 17 18
16 27 36 37 34 35 36 36 36 35 35 34 33 31 30 29 28 26 22 16 15 13 11 13 13 10 9 9 11 10 10 12 19 18 18 15 14 13 15 15 11 11 14 15 16 22 20
25 37 39 38 37 36 34 33 34 33 32 31 30 29 28 26 22 19 18 16 12 16 15 10 7 3 4 5 7 8 12 12 12 10 12 13 11 12 13 12 12 14 15 17 20 20 24
31 37 43 39 40 34 33 33 31 29 29 28 26 25 23 20 18 16 13 11 14 12 10 7 4 3 1 3 5 7 10 12 13 7 8 11 10 13 12 13 15 17 17 16 16 19 21
36 41 43 41 38 31 31 29 27 26 25 25 25 22 19 14 12 14 16 13 12 9 6 4 3 0 3 6 8 10 12 14 15 13 12 12 14 16 15 15 14 13 13 15 18 23 24
41 41 40 39 33 29 29 29 25 21 17 20 21 21 19 16 17 18 16 13 10 6 5 3 1 2 6 9 11 11 14 18 20 19 17 15 15 18 20 19 18 16 19 20 23 23 25
44 43 42 42 36 33 27 22 21 19 19 20 22 21 19 16 16 18 15 9 7 6 3 3 2 5 8 9 9 9 11 15 20 23 22 20 19 19 21 24 22 21 24 25 27 28 30
43 47 44 38 41 31 25 23 17 17 19 23 25 21 20 19 18 16 12 10 9 7 5 5 6 8 10 11 12 13 14 15 16 22 25 25 22 18 20 23 23 23 25 29 31 32 28
40 43 43 44 29 30 29 20 16 16 24 28 24 21 21 20 19 15 12 9 8 7 6 7 8 10 13 14 17 19 21 21 21 22 25 27 26 22 21 21 24 25 25 25 25 23 25
39 38 40 41 35 33 30 20 16 18 27 28 25 21 21 20 17 15 12 9 9 8 9 10 9 11 13 16 19 20 20 19 20 23 24 26 27 26 26 24 24 26 26 25 23 24 25
42 37 41 37 40 37 25 22 19 21 27 29 27 21 19 19 18 16 12 9 9 9 9 11 12 13 14 16 16 17 18 17 20 19 21 21 25 26 28 27 26 26 26 27 28 29 32
46 40 42 41 42 36 29 25 21 22 25 31 28 22 21 20 18 15 13 14 14 11 10 11 11 11 13 13 14 14 15 15 17 15 17 19 23 26 26 27 27 27 30 32 32 33 37
48 45 45 43 45 40 32 33 23 23 24 30 29 26 22 20 17 17 16 15 13 12 12 12 12 11 13 13 14 13 13 13 14 14 13 16 21 26 28 30 30 31 33 34 36 39 42
51 48 47 48 46 43 38 34 28 27 23 31 31 26 23 21 21 19 17 17 15 15 14 12 12 12 12 13 14 13 12 12 12 13 12 11 14 19 28 31 33 35 37 38 39 39 38
52 51 50 50 47 48 42 38 34 30 27 33 31 28 25 24 23 21 20 19 19 19 18 15 13 15 14 16 18 19 16 15 15 15 17 16 13 12 16 20 23 26 28 27 31 36 41
60 55 61 59 52 49 42 41 41 35 31 36 33 30 26 26 26 24 24 24 23 22 21 19 19 17 17 21 22 23 22 22 23 23 24 25 24 24 25 30 33 34 34 35 37 40 42
66 60 58 59 55 54 45 48 43 40 36 39 37 35 30 28 26 26 27 27 26 26 26 25 23 22 24 27 29 29 29 30 31 30 32 34 34 31 34 35 35 37 37 40 41 45 43
60 62 63 60 57 55 52 50 50 45 40 40 42 40 35 32 29 29 30 30 30 31 30 29 30 29 30 30 31 33 33 32 32 32 32 31 30 31 36 35 37 43 45 45 46 50 51
55 61 59 61 59 60 57 57 53 51 45 43 43 43 40 39 36 34 33 33 32 33 33 33 33 33 34 36 34 36 36 35 34 34 35 36 34 32 36 38 42 51 51 46 49 55 58
51 57 59 60 57 56 58 58 59 54 50 49 47 47 45 44 42 42 39 38 37 35 35 35 36 36 37 38 37 39 41 39 37 38 39 37 36 35 36 39 40 57 52 50 53 59 65
49 53 57 58 60 58 57 59 59 54 52 52 51 52 51 49 48 46 43 42 40 39 40 41 41 41 43 43 41 41 43 41 39 41 44 43 44 41 43 45 45 55 56 56 59 63 70
54 53 56 59 59 60 61 58 56 55 54 53 53 54 55 54 51 48 48 46 44 44 45 45 45 46 46 46 45 43 43 44 46 48 48 50 49 49 51 53 52 59 61 62 63 66 71
56 56 56 60 61 64 65 62 60 60 58 56 56 54 54 54 53 51 50 49 48 49 49 49 49 50 49 48 44 43 44 49 49 50 50 51 51 55 58 57 57 62 65 67 70 73 78
58 59 58 60 63 64 65 64 63 63 61 58 57 56 56 55 55 53 52 53 54 54 53 53 54 54 50 47 45 46 47 48 51 53 56 56 58 62 61 63 65 67 70 75 79 81 86
62 61 62 62 63 65 66 66 66 66 64 62 61 59 57 57 57 57 56 56 55 56 57 58 56 49 45 48 49 48 51 52 52 53 62 63 68 64 68 68 73 73 77 83 85 88 91

GFSGBSN_250_spd_003.txt.gz
Wind_Speed
30 27 27 24 15 10 7 7 10 12 14 16 18 20 25 25 23 25 26 26 26 27 28 28 27 28 32 39 39 45 52 62 65 75 85 85 102 97 96 95 97 93 87 94 94 90 85
27 25 22 16 10 7 8 11 13 16 17 21 22 22 24 24 25 24 24 24 23 23 23 24 25 25 29 31 30 30 33 37 48 56 68 77 82 81 89 94 96 90 90 88 82 79 81
24 22 18 10 11 9 12 16 20 24 24 28 28 26 26 25 21 20 20 19 19 18 18 18 16 15 14 13 18 25 29 32 39 46 49 56 54 55 53 63 68 65 72 76 57 57 50
19 17 12 13 14 18 18 25 26 28 30 29 28 27 25 21 20 19 16 14 14 13 11 10 8 7 7 7 7 9 12 15 19 24 31 37 41 39 44 51 56 54 56 38 42 30 26
16 14 16 19 24 24 27 28 31 32 32 30 29 25 23 22 22 21 19 19 19 18 16 15 14 13 11 10 11 12 13 16 19 22 24 27 29 29 30 32 31 33 28 25 23 20 18
12 19 23 30 31 31 34 34 36 35 33 31 29 28 28 28 28 27 25 21 18 16 14 13 14 13 12 12 12 14 15 15 16 17 18 22 24 21 18 16 14 15 15 15 17 17 14
19 26 32 36 35 38 39 39 37 35 36 35 34 33 32 30 28 25 24 20 17 16 18 16 15 14 12 9 9 12 14 12 17 19 15 14 12 8 7 9 12 14 15 17 19 18 19
28 38 38 38 39 42 39 37 37 36 35 35 33 31 30 28 28 23 20 17 16 18 18 16 14 9 7 6 4 2 5 7 9 10 7 6 7 8 9 11 9 11 15 17 19 19 21
39 43 42 40 40 40 37 35 34 32 32 32 32 31 28 25 22 21 19 19 20 18 15 12 10 7 5 3 1 2 4 6 8 8 10 6 8 9 10 11 8 10 14 17 18 19 16
43 45 46 42 40 37 35 32 32 31 30 29 29 27 26 21 22 22 21 19 16 12 9 7 6 4 2 1 4 6 8 10 12 13 12 12 12 11 11 14 16 17 18 19 20 21 21
45 49 49 45 42 37 32 31 29 28 30 30 29 26 24 23 23 22 18 16 12 9 8 6 7 6 5 4 4 5 6 9 12 15 17 19 17 17 18 19 21 23 21 22 23 23 24
48 51 51 47 39 36 33 29 24 24 28 29 24 23 22 21 20 21 17 12 9 7 6 4 4 2 2 4 7 9 12 14 16 18 19 21 23 23 23 22 23 23 23 24 25 26 27
51 50 52 47 37 35 33 25 22 22 23 27 26 24 21 20 21 20 15 10 8 7 5 3 4 3 4 8 11 13 13 16 15 15 20 23 24 27 26 27 24 24 25 24 23 26 24
52 50 53 47 40 36 28 27 20 20 25 28 26 23 22 22 20 18 12 9 6 7 5 6 6 6 10 12 12 12 13 14 15 15 16 19 23 23 28 27 27 25 26 25 24 23 23
53 53 48 50 44 39 31 25 20 18 24 29 28 25 24 23 20 16 13 8 8 8 8 7 7 9 11 9 10 10 10 11 13 14 15 16 19 21 22 25 27 29 28 27 25 25 29
57 55 52 49 49 37 32 30 23 20 23 29 28 24 24 23 19 16 14 12 12 10 8 7 6 7 9 9 10 9 8 10 12 13 14 13 14 17 20 23 25 27 27 27 27 29 33
53 56 54 50 49 37 34 32 23 20 27 29 28 24 24 23 20 19 17 15 14 13 11 9 8 8 10 9 8 6 6 8 10 11 12 14 14 12 14 18 21 24 26 27 30 34 35
54 52 53 50 45 39 39 31 26 22 22 27 33 30 25 23 22 21 19 17 16 14 11 10 9 10 11 12 11 11 11 12 11 12 12 12 13 11 11 12 15 18 22 26 26 25 30
58 53 48 50 47 42 43 37 29 25 22 23 26 33 29 25 24 23 21 20 18 16 14 13 14 13 12 14 14 14 15 16 18 20 21 21 20 19 20 21 22 25 27 28 29 31 33
59 56 52 50 50 48 46 39 35 29 27 23 25 31 30 28 27 25 23 23 21 17 17 18 18 18 18 19 19 20 22 22 23 27 29 29 28 28 30 29 29 30 28 27 30 31 33
61 60 54 53 51 49 50 44 39 34 33 29 26 32 32 30 29 28 26 25 22 21 22 22 23 23 24 24 24 25 26 28 30 28 30 30 30 28 28 29 31 33 34 32 32 37 40
65 63 58 55 54 55 50 48 46 41 37 36 33 33 35 33 31 30 29 27 26 26 27 27 28 29 29 30 30 30 32 33 33 33 32 33 29 31 34 32 34 37 38 39 38 43 46
66 65 60 60 57 57 58 54 50 44 44 41 38 35 38 39 37 32 30 30 30 30 30 31 32 33 34 34 34 35 34 34 36 36 37 37 32 30 34 34 39 44 41 43 45 50 51
60 68 65 60 61 59 61 61 54 50 46 45 44 39 39 42 43 40 38 36 34 34 33 34 35 36 36 36 36 37 37 40 42 41 41 40 36 32 35 35 39 47 42 44 49 53 56
52 61 69 69 61 64 65 64 60 58 51 49 48 46 43 45 45 45 44 42 41 41 40 40 39 40 40 39 40 42 43 45 47 46 42 43 38 38 37 36 41 50 49 53 55 59 62
50 55 57 66 70 65 64 65 64 58 54 53 54 52 50 48 48 46 46 45 46 47 46 44 45 46 46 44 45 44 46 48 47 46 46 47 45 44 42 44 46 51 54 58 60 65 69
52 53 52 59 66 67 66 66 66 64 62 60 57 55 54 52 52 51 51 51 52 50 50 49 49 51 50 50 48 48 50 50 48 49 49 50 49 51 48 50 54 59 61 65 71 70 71
57 53 51 52 60 66 65 66 65 62 58 59 60 59 56 55 54 52 53 54 55 55 54 55 54 53 53 54 51 53 51 46 48 51 54 55 52 53 54 61 63 66 68 73 73 74 80
61 57 56 54 54 58 61 65 65 64 62 60 60 59 58 57 57 56 54 53 53 54 56 57 58 58 57 55 54 54 51 50 50 53 59 60 61 60 61 67 70 72 74 74 77 81 87

GFSGBSN_250_spd_006.txt.gz
Wind_Speed
26 28 30 29 28 26 21 13 12 14 17 18 18 22 25 26 22 24 25 25 26 27 30 35 37 39 40 42 42 44 47 51 53 60 67 71 81 88 91 92 96 96 92 85 97 87 91
25 27 27 27 22 19 12 10 11 14 17 19 22 23 24 25 26 24 24 25 26 27 27 29 29 28 29 30 33 36 37 41 45 51 58 67 74 84 91 83 92 90 91 87 85 79 68
21 25 25 22 17 14 11 11 13 17 22 24 25 26 26 27 26 25 25 24 24 24 23 23 25 24 24 24 26 28 32 34 35 38 41 44 48 54 63 67 70 67 69 68 67 70 64
22 22 21 18 14 14 13 17 19 24 27 29 31 30 28 26 27 26 24 23 22 21 21 20 20 21 20 20 22 22 22 24 26 28 30 34 39 40 42 45 50 48 51 53 48 45 41
20 20 16 14 15 17 20 24 27 30 34 33 32 30 28 27 26 25 24 24 23 21 20 20 21 23 22 20 20 20 20 23 23 25 29 31 34 34 32 29 29 29 31 31 28 29 30
19 16 14 18 21 24 30 32 30 32 36 32 30 28 27 27 27 25 23 23 23 21 20 19 19 17 15 12 12 13 13 14 16 18 19 20 18 17 17 18 20 21 20 17 17 19 20
16 14 23 24 28 34 35 37 34 31 31 29 30 30 30 31 30 30 29 27 24 22 18 15 13 11 11 11 11 12 13 13 13 15 15 14 10 12 14 15 16 16 15 16 17 18 17
15 22 28 32 39 39 38 38 37 32 31 32 34 35 34 33 32 27 24 23 21 19 17 16 15 13 13 12 13 14 13 13 14 14 13 13 13 11 14 17 17 15 14 14 15 16 21
18 30 36 38 43 41 39 40 35 31 34 35 36 35 33 30 27 25 25 23 22 21 20 19 17 16 14 12 10 8 7 9 12 14 15 12 13 14 14 15 14 13 11 11 14 18 21
27 36 40 41 46 43 42 39 34 33 35 33 32 31 31 31 29 26 24 23 23 21 20 18 16 13 12 10 8 6 6 7 8 11 13 15 15 16 14 14 16 18 16 15 16 19 19
41 41 43 49 47 41 39 36 34 32 32 31 31 31 29 29 29 24 23 24 22 19 16 14 12 9 6 3 1 1 3 6 7 9 13 16 19 20 20 20 17 18 19 19 20 20 23
46 45 49 47 42 42 38 36 33 32 32 32 30 30 28 28 26 24 23 20 18 15 14 13 11 9 7 5 3 2 4 6 9 12 14 17 20 23 25 24 22 21 21 23 23 25 25
51 53 49 46 46 41 38 35 32 32 33 31 28 27 26 26 25 23 22 18 15 14 13 12 9 7 6 3 5 6 7 10 11 11 12 14 19 23 23 24 27 27 24 24 25 26 27
54 56 53 49 47 41 37 34 34 31 33 32 28 27 28 27 28 24 20 16 12 11 11 10 6 5 5 6 6 6 7 7 9 9 9 11 15 16 20 21 22 25 27 27 28 28 29
55 59 56 52 48 42 39 37 33 33 32 32 29 28 26 26 27 23 18 15 11 12 9 6 5 5 5 5 4 4 4 5 7 9 11 11 12 12 15 18 20 21 24 28 29 29 29
57 59 59 55 47 44 41 35 30 34 33 32 31 28 25 25 25 22 17 12 11 11 10 8 5 3 5 3 3 3 1 3 6 8 10 11 12 13 13 12 14 17 20 23 27 26 26
56 62 63 57 48 45 38 36 32 30 31 33 32 28 27 26 24 20 17 15 12 11 10 9 8 4 5 4 4 1 2 2 4 5 6 7 10 11 12 12 12 12 12 16 20 23 25
59 63 63 60 54 48 42 37 34 31 32 35 32 29 27 27 24 20 18 16 14 14 13 12 10 7 4 5 5 5 5 6 7 9 10 10 12 15 16 16 16 17 18 18 19 24 31
63 64 62 61 55 50 45 39 34 30 32 35 35 30 26 25 24 22 21 20 18 16 16 14 12 10 8 8 8 9 11 12 13 15 18 21 23 23 21 23 23 22 23 23 25 27 31
61 62 62 62 57 54 52 39 40 32 32 35 37 33 31 28 26 25 24 23 21 18 19 17 14 14 14 14 14 15 16 18 20 23 24 26 28 28 26 27 26 25 24 26 27 27 29
63 63 62 62 58 57 53 46 41 36 32 31 31 29 31 34 30 28 27 26 24 20 21 19 17 18 19 20 21 22 23 24 25 27 28 27 30 32 32 32 35 33 30 31 31 35 36
64 67 66 63 62 59 54 46 47 41 37 33 31 27 30 33 33 31 30 29 28 25 24 23 22 22 23 25 26 28 29 29 30 30 29 28 32 36 39 35 37 36 32 34 37 36 38
66 65 63 64 64 59 54 48 49 47 42 38 32 31 27 31 35 34 32 31 32 30 29 28 26 26 26 28 30 33 34 35 34 33 33 34 36 37 40 39 43 37 39 40 41 42 45
59 68 66 62 64 62 58 56 52 51 47 42 35 34 36 33 34 36 36 34 34 34 32 30 30 30 31 32 33 34 37 38 40 40 39 39 41 40 39 39 44 38 41 43 46 49 52
62 61 68 66 64 64 62 61 57 54 50 48 44 42 40 39 38 37 41 40 39 37 35 35 35 36 38 38 38 39 40 43 44 45 44 44 44 40 37 37 45 44 45 48 49 55 60
53 64 66 69 66 60 61 63 63 59 56 52 50 46 42 42 41 40 39 40 43 44 44 43 43 44 44 44 43 44 46 48 49 50 50 49 46 43 41 43 45 43 47 50 54 58 62
57 52 66 68 70 65 63 61 61 62 61 58 56 53 48 49 47 45 44 42 43 45 46 48 50 50 48 47 48 49 51 52 53 54 54 52 50 46 47 46 46 47 52 57 61 63 67
59 55 52 65 70 70 69 64 63 62 63 60 61 59 56 56 53 51 50 50 50 51 50 51 51 53 52 52 52 52 54 56 57 56 57 56 53 49 51 52 51 55 58 61 64 66 70
62 59 53 52 59 74 70 64 65 66 64 63 65 65 62 59 57 56 56 56 53 53 55 54 53 53 54 53 52 53 56 55 55 56 60 57 54 55 52 57 56 60 62 64 67 70 75

GFSGBSN_250_spd_009.txt.gz
Wind_Speed
22 19 24 29 32 31 32 30 27 22 20 21 22 23 24 25 28 27 27 27 28 27 29 32 37 40 44 45 45 48 47 47 48 52 58 63 69 74 80 81 72 73 81 83 87 91 87
19 22 25 29 28 28 30 24 17 14 16 19 22 22 23 24 25 24 25 24 24 25 26 30 32 35 37 38 39 39 41 43 45 48 51 54 59 61 66 71 72 73 80 80 78 80 72
22 23 25 25 25 26 24 17 12 11 14 19 20 22 25 24 25 24 24 22 21 21 23 25 28 31 33 35 35 36 39 41 42 43 46 50 54 54 56 54 54 57 62 70 71 68 83
23 23 23 23 24 23 15 13 11 14 17 20 24 26 27 27 24 23 22 21 22 24 23 25 26 27 27 28 31 33 34 36 36 35 35 37 39 40 40 42 46 49 50 52 57 55 53
22 21 24 20 22 17 14 13 16 21 26 28 28 27 26 25 23 23 23 23 23 23 22 23 23 24 23 24 23 25 26 28 31 32 32 34 35 36 38 41 43 44 42 42 41 41 42
21 24 22 18 17 15 17 19 24 27 31 32 31 29 29 29 27 25 25 25 25 26 25 24 23 19 22 23 23 25 26 27 29 31 32 33 33 35 35 36 33 31 30 25 23 24 26
22 23 18 17 18 21 24 28 31 34 34 34 35 34 31 30 29 28 28 27 29 28 26 24 22 25 26 24 25 25 24 23 23 22 22 23 22 21 21 22 21 21 20 18 17 19 21
23 21 18 19 23 30 35 35 35 35 34 33 32 32 33 33 31 31 31 29 26 26 25 22 21 21 18 16 15 14 15 14 15 15 15 17 16 17 17 17 17 16 15 14 16 17 19
22 19 21 24 33 37 39 38 38 34 32 32 32 34 32 31 30 28 26 24 22 21 21 19 15 16 14 13 12 11 12 13 13 12 14 14 15 16 16 17 16 15 16 17 18 19 23
21 21 25 34 43 40 42 41 35 32 33 33 33 33 33 30 27 26 24 24 22 21 20 19 19 18 17 15 12 11 10 9 10 12 14 15 15 16 18 18 18 19 20 21 21 20 21
21 26 33 45 46 44 40 37 35 31 35 33 33 32 31 30 25 25 23 22 23 22 23 22 20 17 14 11 8 4 3 3 5 7 11 16 21 23 22 21 22 23 24 24 24 25 26
24 33 42 50 49 43 39 38 35 35 34 33 32 33 31 28 26 25 24 24 24 22 20 18 14 12 10 8 7 6 6 7 7 7 10 13 15 18 21 25 27 26 26 26 28 30 30
29 39 46 49 51 39 40 39 36 35 33 33 34 33 31 28 25 24 26 24 22 19 15 15 13 11 9 7 5 5 6 8 9 10 9 9 11 13 16 21 24 27 29 31 31 31 30
35 42 49 52 49 43 41 38 37 37 37 36 36 30 30 28 25 25 24 21 19 16 16 16 13 12 11 7 6 5 3 3 3 3 2 4 7 11 14 15 17 21 24 29 32 34 34
43 46 48 55 49 44 41 39 40 40 37 36 32 29 28 28 26 25 23 19 17 18 17 14 11 9 8 5 4 4 3 0 3 5 6 6 7 8 9 9 12 16 18 20 26 30 35
49 49 55 53 47 45 43 40 39 38 38 35 32 30 28 27 28 26 21 18 16 17 16 13 9 7 5 2 3 3 4 3 3 3 4 5 8 11 12 11 10 11 14 17 19 23 27
54 56 58 52 49 47 42 41 41 37 38 37 33 32 30 29 30 26 21 19 16 16 14 11 9 7 5 5 3 4 4 2 2 3 5 8 10 12 14 14 15 16 18 18 18 21 23
58 61 61 55 52 49 45 44 41 39 38 36 35 33 31 30 29 27 23 21 15 15 14 12 12 10 6 5 5 6 4 4 6 8 9 11 14 17 19 19 18 20 21 23 27 29 33
57 65 63 59 55 52 47 45 40 41 40 37 37 34 32 30 29 28 24 21 18 14 14 14 14 12 11 8 7 7 7 9 11 13 16 18 20 22 23 24 24 25 23 24 26 29 33
57 62 65 62 60 54 49 46 42 40 38 38 38 36 33 32 30 30 25 22 19 17 16 15 16 15 14 13 12 12 14 15 17 19 21 23 24 26 27 27 28 27 29 32 33 35 36
54 62 66 65 62 57 51 48 43 39 39 36 41 39 36 33 31 29 26 24 23 21 20 19 19 19 18 17 17 17 19 21 22 23 24 26 28 30 31 33 35 35 37 37 37 39 39
55 62 62 67 65 60 53 47 45 40 36 37 41 42 39 35 31 29 27 26 25 25 24 23 22 23 23 22 20 21 23 24 26 28 29 29 29 34 39 40 41 40 39 39 40 39 42
58 62 62 67 68 62 59 51 49 43 38 36 41 38 37 33 33 33 32 29 28 28 28 27 27 26 26 25 25 26 27 29 30 31 32 32 34 36 40 42 45 45 43 39 39 40 44
60 62 64 66 67 67 60 58 54 50 46 40 36 37 38 34 30 29 31 33 32 32 32 31 30 30 30 30 30 31 33 34 35 36 37 39 39 40 42 44 47 44 45 44 46 44 43
62 63 66 68 68 66 65 60 57 54 53 48 42 39 36 34 32 29 30 33 35 35 35 34 33 33 35 35 36 37 39 41 43 44 44 44 45 45 46 47 48 48 46 46 48 47 48
60 66 68 68 64 65 66 63 58 59 53 53 51 45 40 36 34 34 34 31 32 34 37 38 38 39 40 42 43 46 47 47 48 48 50 50 51 51 50 50 50 48 46 49 47 49 51
61 65 68 69 68 66 66 64 61 62 56 55 55 51 48 45 43 39 38 38 37 36 35 36 40 43 46 48 50 52 54 55 54 54 54 54 53 56 52 53 52 50 51 54 53 54 59
62 59 68 69 70 70 69 67 66 64 61 60 56 53 52 49 49 46 44 43 42 41 42 44 44 46 48 48 50 51 54 56 56 57 56 55 55 57 57 60 55 53 52 55 57 61 64
65 60 60 69 70 71 65 66 66 70 68 66 60 59 60 55 54 53 53 50 49 50 49 51 51 52 50 53 55 56 57 56 56 56 57 61 60 61 60 66 62 59 57 59 63 66 69

GFSGBSN_250_spd_012.txt.gz
Wind_Speed
40 33 27 21 22 24 28 31 33 31 31 25 23 22 24 26 25 24 23 25 27 29 30 31 33 34 38 42 44 45 46 48 51 54 56 57 62 71 78 81 87 92 91 95 95 92 88
39 27 23 24 23 26 28 33 31 26 23 21 18 22 23 23 22 22 23 24 25 26 26 28 30 32 36 38 39 40 44 43 45 49 50 50 53 59 70 72 72 78 80 82 84 87 89
34 25 24 24 22 25 29 32 26 20 17 16 17 23 22 23 24 23 23 22 22 22 22 23 25 28 33 35 35 36 37 39 42 43 45 44 43 45 49 56 62 68 73 79 84 86 87
33 26 23 21 21 27 28 28 18 14 13 14 19 22 23 22 23 21 19 18 17 18 19 21 22 24 27 28 30 30 33 34 36 38 39 41 42 43 46 49 53 55 55 56 60 62 67
31 26 25 20 22 27 26 20 12 10 11 13 18 22 23 21 20 19 19 18 17 18 19 20 21 21 22 25 27 28 30 33 35 36 38 39 40 39 40 42 44 46 48 49 51 53 55
31 27 22 20 24 26 21 15 11 13 15 17 20 23 24 24 24 21 21 20 20 20 19 21 20 18 22 22 23 25 25 28 31 33 36 35 34 34 34 36 36 39 42 45 46 47 46
34 27 21 23 25 22 18 14 16 22 25 26 28 29 29 26 24 24 21 23 26 26 28 22 22 25 21 20 20 20 23 25 25 26 26 28 29 30 31 33 33 37 39 40 38 38 36
33 26 22 23 24 18 19 20 25 27 33 32 30 30 31 29 29 30 29 28 26 26 25 25 22 22 20 20 20 19 20 21 22 23 25 27 29 30 32 33 32 31 30 27 27 26 26
32 25 22 23 18 22 25 27 31 33 33 34 34 34 31 30 31 30 29 30 25 24 25 25 24 22 20 18 16 17 17 17 15 15 16 17 20 21 22 23 23 24 24 24 25 26 27
30 24 23 21 21 29 33 34 33 33 34 34 34 34 33 32 31 30 28 28 25 22 22 20 21 19 16 15 14 12 11 10 10 12 13 15 17 18 20 23 22 22 23 23 25 27 24
28 26 24 21 29 38 41 36 35 32 31 32 34 33 33 32 28 29 24 24 23 21 20 19 19 18 16 13 10 8 9 9 9 10 12 13 16 18 20 22 21 23 23 24 25 26 26
29 26 25 27 41 43 41 38 37 32 32 34 34 34 31 31 32 26 24 21 22 22 22 21 18 16 14 11 10 8 6 5 3 4 7 10 14 15 18 21 24 24 24 26 27 29 31
29 27 27 38 46 46 40 41 35 32 34 34 35 33 32 31 27 25 25 24 23 22 21 19 16 13 12 10 8 5 4 3 4 5 6 7 8 9 11 15 19 23 26 28 30 32 35
31 29 33 49 47 50 35 43 31 34 34 33 33 34 32 27 27 26 26 24 22 20 19 16 13 10 8 5 3 2 3 4 1 1 2 1 3 5 7 8 9 10 14 18 22 27 29
35 32 42 54 49 48 41 38 38 35 36 35 36 36 29 27 26 25 26 24 20 17 16 15 14 11 9 7 5 6 4 4 4 6 7 7 6 7 9 11 11 11 10 12 14 17 22
39 36 49 54 53 47 39 39 40 38 38 38 39 34 30 28 25 27 25 23 20 18 17 15 11 9 7 6 8 7 7 7 5 4 2 2 5 8 9 12 14 16 18 20 21 23 25
41 40 52 56 56 47 41 42 40 41 38 39 40 34 30 29 26 27 25 23 19 19 18 15 11 9 7 7 8 8 7 4 3 2 2 4 7 10 12 14 15 17 20 23 23 26 28
44 45 53 55 57 47 44 41 42 42 40 39 38 33 30 29 27 28 25 20 18 20 19 15 13 11 8 8 8 9 7 6 5 5 6 8 11 12 15 17 17 17 19 21 26 29 31
46 47 52 55 57 51 46 43 43 43 43 40 35 33 31 29 29 30 26 22 20 20 19 16 13 12 11 9 10 8 9 8 9 10 13 15 17 18 20 22 26 28 31 33 35 37 38
50 49 52 56 57 53 47 46 44 43 40 41 39 35 30 30 30 31 28 25 23 19 17 15 14 14 14 13 11 10 11 11 12 15 17 19 21 22 23 24 26 29 32 34 34 38 41
54 53 55 61 58 51 50 47 46 43 39 39 36 35 34 34 33 32 30 26 25 22 19 15 15 17 17 16 16 16 16 16 16 18 20 22 25 26 26 29 31 33 35 37 40 40 39
57 58 58 63 58 53 51 47 46 43 40 38 37 37 36 35 33 32 31 29 27 24 22 19 18 19 21 21 21 21 21 21 20 21 22 24 27 31 31 33 36 39 40 42 44 45 44
60 60 61 64 61 56 52 50 48 44 39 35 40 41 38 36 34 33 31 31 30 27 25 23 22 22 25 25 25 26 26 25 25 26 27 30 32 36 40 42 42 44 44 46 49 47 47
60 61 64 66 64 60 57 54 51 46 41 40 37 35 39 40 37 35 31 30 29 28 28 26 25 27 27 28 30 30 30 30 31 32 34 36 39 42 44 47 50 50 50 49 48 50 52
58 61 61 65 67 64 61 58 54 51 46 41 37 34 39 39 37 36 33 31 33 34 31 31 31 31 31 32 33 34 34 35 36 39 42 44 46 48 49 50 53 52 50 54 50 54 53
57 61 61 65 64 67 65 62 58 56 49 48 40 36 35 35 37 34 29 31 27 27 30 30 32 33 34 36 38 38 39 42 44 47 49 49 50 53 54 54 55 56 55 55 54 56 55
59 58 61 61 64 64 66 65 62 59 55 49 48 43 41 37 37 36 29 33 29 30 27 28 30 30 31 34 34 35 38 42 43 47 52 53 54 55 55 56 56 57 58 62 62 61 60
60 59 60 62 63 63 64 65 66 62 59 56 53 50 48 48 45 39 36 35 36 35 34 35 37 36 38 40 41 44 45 49 51 54 57 60 63 62 61 61 60 61 60 64 69 66 62
62 61 61 63 60 63 63 64 65 68 64 60 57 56 54 53 53 51 48 43 42 41 43 45 41 45 46 49 50 53 56 57 60 61 64 69 69 65 64 66 68 68 64 65 66 64 65

GFSGBSN_250_spd_015.txt.gz
Wind_Speed
56 58 53 43 35 33 23 21 23 28 28 30 31 32 31 29 26 26 25 27 28 28 27 26 27 28 30 34 35 35 39 40 42 47 50 51 52 63 76 74 74 74 71 73 77 76 78
55 54 45 34 33 28 24 25 26 27 30 30 30 28 26 23 20 21 22 23 22 23 23 23 24 27 31 32 35 35 36 35 36 37 40 47 50 53 59 68 77 74 75 73 74 74 76
55 51 38 32 34 30 23 25 25 28 29 28 26 22 19 18 20 21 21 20 19 19 20 21 22 25 29 32 34 33 33 34 37 40 43 47 50 49 50 54 64 76 74 71 78 82 85
60 46 34 30 30 27 22 24 28 27 26 22 19 16 17 19 19 20 19 19 18 18 18 20 21 24 26 27 28 29 30 30 31 34 37 41 43 45 48 52 57 68 70 76 76 78 79
57 39 29 26 29 23 21 25 28 25 19 16 12 16 19 20 20 19 18 16 16 16 18 19 21 22 23 24 26 26 26 27 27 29 32 35 40 42 44 42 44 48 54 61 71 76 71
49 37 26 31 28 22 21 27 27 17 12 9 14 18 20 20 20 19 17 16 16 16 17 17 18 19 20 21 22 23 24 25 26 28 30 31 33 34 35 38 42 43 44 44 50 53 54
41 33 28 32 26 19 22 29 21 15 11 12 17 21 23 21 19 17 16 17 19 22 21 20 19 23 19 19 20 22 23 23 24 26 26 28 33 36 36 37 39 39 38 37 42 40 40
37 33 32 30 24 19 24 28 17 13 17 20 23 24 24 25 25 25 23 22 18 20 22 24 21 22 19 18 17 18 19 19 19 21 22 25 27 28 30 29 29 29 31 32 33 33 35
38 33 35 31 23 20 25 22 18 19 27 27 27 28 28 28 28 28 29 28 24 25 25 26 22 21 20 18 18 17 14 14 14 15 15 16 19 21 23 27 30 32 31 28 30 31 33
40 37 38 31 20 21 24 23 23 31 32 29 28 29 27 27 28 28 30 30 26 26 24 25 23 22 19 17 15 15 13 15 16 17 16 16 17 18 20 20 20 24 23 25 26 28 30
44 39 40 27 18 23 25 25 29 35 31 29 31 31 30 30 30 30 29 30 26 22 22 20 20 19 19 17 16 15 12 12 10 9 9 9 10 12 13 13 17 22 20 23 25 28 30
47 42 38 25 21 25 28 34 37 33 32 33 34 33 32 31 31 30 28 26 27 21 23 24 22 20 18 17 15 12 11 8 7 6 7 10 11 13 15 16 18 22 24 24 25 27 31
47 45 36 26 25 30 39 40 34 33 34 34 34 34 33 32 31 29 29 27 26 24 24 22 21 19 16 14 13 11 10 8 7 8 7 8 7 7 7 8 11 13 16 19 23 26 29
48 45 35 27 29 39 45 40 35 34 34 35 35 33 33 32 28 28 27 26 24 25 22 20 18 16 15 13 10 8 7 6 7 6 6 6 7 6 5 5 3 4 6 9 11 16 22
50 44 35 29 36 47 47 40 40 35 34 35 34 33 30 28 28 28 28 25 24 22 19 19 18 15 13 11 7 6 6 8 7 9 10 11 9 7 6 7 8 10 11 13 15 18 22
50 44 34 33 46 51 47 39 42 35 36 34 35 31 30 28 29 28 27 25 23 20 20 18 14 11 10 6 7 9 8 10 10 11 9 6 4 3 4 7 9 12 13 16 18 22 28
52 44 34 40 53 54 44 40 43 35 38 34 36 34 30 29 28 29 28 24 21 20 19 17 15 13 10 9 11 11 11 10 9 7 5 3 1 3 6 8 11 12 16 16 16 20 25
54 44 37 46 56 57 44 41 44 38 38 36 38 35 30 29 26 28 27 23 21 20 19 18 15 14 11 11 12 12 11 10 8 6 6 6 7 9 12 12 13 15 17 19 24 25 28
54 45 41 53 57 58 46 41 41 44 40 39 39 39 31 28 25 28 26 24 21 20 19 17 16 14 12 13 13 12 12 11 10 10 10 9 11 14 17 19 20 19 23 26 30 34 34
54 46 45 60 55 58 48 43 43 44 43 40 39 39 32 29 28 27 28 25 22 20 20 18 17 14 13 12 12 12 11 12 12 13 13 14 15 16 18 19 21 23 26 28 29 33 39
56 49 47 62 57 57 50 43 44 45 43 40 40 40 36 33 31 30 30 28 24 20 19 20 17 16 15 14 14 14 14 14 14 15 17 18 19 19 21 23 27 29 33 35 37 39 41
56 51 49 64 59 60 50 44 40 43 44 41 36 38 34 32 27 28 31 31 26 23 22 20 17 16 16 18 20 19 18 18 18 19 21 22 24 25 27 30 34 38 39 42 45 47 49
57 52 51 60 60 62 53 45 45 44 43 41 38 39 37 36 30 31 33 32 29 26 23 21 18 18 22 20 19 22 21 21 22 23 24 27 29 31 34 38 42 45 48 49 51 51 52
58 55 51 57 61 64 56 48 43 45 41 42 41 36 34 33 32 34 33 33 30 29 24 22 23 24 24 21 23 23 23 23 25 27 29 31 33 37 41 43 44 43 48 51 53 54 57
59 57 52 54 58 62 54 51 48 46 47 45 38 34 33 35 33 33 33 33 31 29 26 28 28 25 25 27 27 27 27 27 29 30 33 35 36 37 40 44 49 48 54 58 57 58 62
59 58 54 52 59 64 58 52 50 48 48 42 38 38 35 31 32 36 35 32 31 28 29 29 28 28 28 29 28 28 29 27 27 30 31 34 38 44 47 51 53 55 60 62 59 60 63
60 60 57 53 57 65 61 56 52 50 49 46 43 41 35 32 29 31 30 37 34 31 29 28 25 20 22 25 28 29 31 30 32 38 41 44 48 52 54 56 59 61 59 58 60 60 61
62 59 60 57 56 61 64 60 57 54 51 49 48 42 42 39 32 28 30 34 34 31 30 30 28 28 30 31 33 36 39 43 43 46 49 52 56 60 61 63 64 63 59 61 65 63 62
63 58 60 60 58 59 61 63 61 59 56 52 50 51 50 46 43 37 34 32 35 34 36 37 32 36 35 39 42 42 42 45 49 52 56 57 62 66 67 68 70 65 64 62 62 65 65

GFSGBSN_250_spd_018.txt.gz
Wind_Speed
65 63 67 68 68 69 62 46 40 31 29 32 30 30 30 30 31 29 29 28 26 26 26 27 28 30 34 37 41 36 33 37 39 42 45 47 49 46 53 62 68 71 69 66 65 69 79
60 60 65 61 64 61 54 42 33 32 32 31 30 30 30 29 25 24 24 22 20 19 20 22 26 29 32 35 32 30 29 32 32 33 37 40 46 47 47 56 59 70 77 66 70 69 72
61 61 62 58 59 58 46 36 31 34 32 29 30 32 28 22 21 19 17 15 15 15 17 21 24 27 28 30 30 30 32 33 33 35 36 41 43 47 47 53 63 63 72 69 72 67 70
65 62 60 60 54 57 39 31 28 34 30 28 32 27 21 17 16 17 15 16 16 16 18 19 20 22 25 28 30 33 35 35 36 34 33 36 40 47 47 47 47 53 58 65 69 73 65
63 59 57 64 59 52 35 25 30 31 26 28 23 19 15 14 15 17 17 18 17 17 17 19 21 23 26 28 28 31 32 33 32 33 35 35 36 36 36 38 40 42 45 54 65 68 67
60 61 65 60 67 45 34 25 29 27 24 25 17 14 14 15 17 17 18 17 17 17 18 19 20 21 23 24 26 25 25 26 26 27 28 28 27 29 34 36 36 38 41 48 52 52 55
62 61 72 60 64 39 27 26 27 22 26 16 12 15 16 16 19 20 19 19 19 21 22 23 22 22 23 23 23 23 24 23 24 24 25 26 28 30 30 31 35 36 41 44 42 43 44
62 65 73 69 58 35 27 26 25 21 19 14 13 18 19 21 23 23 21 18 19 20 24 26 25 24 23 24 23 22 22 21 21 22 23 22 23 24 27 29 31 35 39 41 39 40 38
66 73 77 73 48 31 28 26 22 19 15 17 19 22 24 25 23 21 22 22 22 22 23 27 24 25 25 24 23 20 19 20 20 19 18 19 19 21 22 23 27 29 31 31 31 34 36
73 73 77 65 39 32 28 25 19 18 18 24 25 23 22 22 23 24 24 24 24 23 23 26 26 27 23 21 18 16 15 14 12 12 12 12 15 15 16 21 22 23 27 32 33 31 31
77 73 73 51 34 34 29 23 19 20 25 27 24 24 25 26 26 26 28 27 25 24 24 24 23 21 19 17 16 16 14 13 15 14 16 15 15 14 16 20 19 20 21 22 24 25 27
73 71 57 42 37 36 28 21 21 25 31 29 24 27 27 27 27 27 28 28 25 25 23 23 21 20 20 19 19 19 17 17 16 16 15 15 15 13 14 14 14 17 19 22 25 27 28
65 56 45 41 42 37 28 22 26 32 32 29 27 29 29 29 30 30 30 30 27 22 24 24 23 21 20 19 18 17 15 13 11 10 10 9 9 8 9 9 11 14 16 16 17 18 13
53 48 46 44 45 37 27 26 34 38 32 30 30 31 29 29 29 29 28 28 27 26 28 25 22 22 20 20 18 16 14 12 11 10 8 8 9 8 7 6 4 3 1 3 6 8 8
45 45 49 48 46 35 28 35 42 39 33 33 32 31 31 31 30 29 28 29 27 26 25 24 23 20 19 17 14 12 10 10 10 10 12 15 14 12 9 5 2 3 6 8 10 12 13
46 47 52 52 45 34 33 46 42 35 38 36 34 33 33 33 31 31 29 27 26 26 25 22 20 18 17 14 10 12 12 12 15 18 16 12 9 6 3 1 3 6 8 10 13 15 14
47 54 53 53 43 35 43 49 42 37 40 37 36 35 35 33 32 30 27 26 25 24 21 20 19 18 15 11 13 13 15 16 17 14 12 9 6 2 3 6 9 12 14 15 18 21 24
54 58 57 52 43 40 54 47 42 41 39 38 37 36 35 35 31 28 26 25 24 22 21 20 18 15 13 12 13 14 17 15 13 11 9 9 9 8 10 11 13 16 16 20 22 22 29
59 61 60 50 44 47 59 48 44 42 41 41 39 38 37 35 32 30 28 25 22 21 21 20 17 15 13 13 16 16 14 13 13 13 13 12 12 13 13 14 14 15 18 23 27 29 31
64 63 59 49 45 54 59 48 46 44 41 43 37 40 36 33 32 31 29 25 22 21 21 20 17 16 15 15 15 14 13 14 14 14 14 15 16 16 17 18 17 18 21 27 30 34 39
66 64 55 49 48 59 59 48 49 45 40 41 38 42 39 36 33 33 30 26 23 21 21 20 17 17 17 16 16 16 16 15 15 15 15 16 18 18 18 20 22 25 30 32 35 38 41
66 63 54 50 51 63 60 49 46 46 41 40 42 40 40 34 27 28 29 28 25 22 20 18 17 20 21 21 19 18 16 16 17 17 17 18 19 21 22 23 27 31 35 37 39 43 46
66 62 54 51 53 64 61 49 45 45 43 42 43 41 41 35 31 28 27 28 28 25 21 20 22 22 21 18 16 18 19 18 19 19 20 21 22 24 26 27 30 34 37 40 43 48 50
64 60 53 50 56 63 61 50 44 42 42 46 44 42 41 39 34 32 27 26 30 28 25 23 24 22 18 16 18 18 19 20 21 22 23 25 25 26 28 29 31 36 41 44 49 54 54
64 58 53 48 57 61 61 52 50 40 40 46 42 42 39 38 32 30 25 28 31 31 29 26 23 23 21 21 22 21 22 23 25 26 27 27 27 29 31 35 38 43 46 49 53 59 59
62 58 54 47 57 61 60 54 50 42 43 45 43 41 36 33 32 31 27 30 32 32 30 31 28 25 25 25 26 26 23 22 24 28 30 27 29 36 39 41 44 50 53 55 58 63 64
61 57 55 51 49 64 61 57 51 43 42 45 44 42 39 34 31 30 30 31 32 34 31 31 30 30 29 27 21 20 21 23 25 28 34 37 39 42 46 49 52 54 57 60 63 63 65
61 57 55 54 51 58 63 61 55 47 44 46 45 42 42 39 34 26 25 29 33 36 36 34 33 33 30 26 27 29 26 28 32 34 39 41 45 49 53 57 57 61 64 65 66 69 69
61 58 56 54 54 50 61 64 59 50 46 45 48 45 42 39 35 32 32 27 28 31 35 38 37 37 33 35 35 34 33 36 39 41 47 50 52 54 56 59 63 67 69 69 71 72 73

GFSGBSN_250_spd_021.txt.gz
Wind_Speed
81 76 71 69 65 62 61 69 61 60 61 52 45 35 37 36 34 34 32 33 33 33 28 31 34 37 40 42 43 42 40 38 36 33 32 35 37 37 37 42 42 46 52 59 58 60 64
81 78 72 63 61 59 63 59 56 58 55 47 40 35 37 35 36 34 30 30 28 24 24 25 30 33 35 37 39 38 36 33 30 31 30 35 34 34 33 36 46 51 59 62 63 61 61
86 77 68 56 61 60 58 57 50 58 52 45 38 35 37 36 35 29 26 23 19 18 19 21 25 29 33 35 34 34 33 32 32 32 31 36 39 37 40 39 45 57 58 61 60 67 49
81 72 59 52 54 55 56 53 48 58 45 45 33 35 35 34 28 23 20 17 17 16 17 19 22 26 28 30 33 34 34 33 33 33 33 33 39 40 42 42 46 44 53 57 60 64 60
75 66 54 49 55 58 56 49 49 56 45 39 32 35 31 25 20 16 18 18 16 15 15 17 20 25 29 32 35 37 38 39 33 31 29 30 29 30 33 37 41 44 46 49 57 67 66
78 62 56 47 56 57 52 49 47 50 44 31 33 29 20 18 16 17 18 17 18 17 18 18 20 21 23 25 27 27 27 26 26 27 28 28 26 27 32 32 33 36 40 42 43 50 56
73 66 59 45 61 59 49 47 47 46 40 30 30 20 14 12 14 15 16 17 18 19 19 21 21 23 25 24 27 28 28 27 28 28 29 29 30 30 27 30 36 38 38 37 37 36 36
68 66 57 47 52 52 48 46 46 39 33 30 21 16 12 13 16 20 20 20 21 22 21 21 23 24 25 27 26 27 28 29 29 30 30 30 28 26 27 29 30 31 31 31 31 32 36
72 62 58 58 51 51 48 46 49 36 30 27 17 14 14 18 20 19 19 18 17 18 20 21 21 23 25 26 27 28 27 25 26 27 26 24 24 23 23 25 26 28 29 29 29 30 33
78 63 63 60 55 49 46 44 48 35 29 21 17 17 18 18 19 22 21 19 19 20 20 21 22 22 23 22 23 23 22 22 21 21 19 20 20 19 20 20 21 23 25 25 24 25 27
75 71 69 59 54 51 45 42 46 36 28 20 21 20 21 23 22 21 21 22 22 22 22 24 24 23 23 20 21 20 19 19 16 16 19 17 16 19 17 19 20 21 22 24 25 23 21
72 71 72 59 58 60 49 43 39 36 26 20 25 22 24 23 23 23 23 23 23 25 24 24 24 25 25 22 20 21 19 17 17 15 15 14 16 16 16 16 18 19 20 21 22 21 19
73 70 70 58 62 63 49 41 40 35 24 26 28 26 26 25 25 23 24 25 26 26 25 24 22 22 20 18 16 15 15 15 15 15 16 17 17 15 15 15 16 17 17 16 12 8 6
74 72 67 59 60 57 44 41 43 34 26 32 29 27 28 26 24 23 24 25 24 22 24 22 20 18 18 19 19 18 18 19 19 17 15 14 13 13 13 11 9 7 4 2 1 5 8
77 63 60 60 61 46 40 47 43 33 32 33 31 29 29 26 26 26 27 26 25 24 23 21 21 23 23 21 20 18 16 14 12 11 11 11 12 12 10 9 8 5 2 2 5 8 11
69 60 56 55 48 44 47 52 42 34 40 36 33 30 30 28 29 29 26 22 21 22 23 24 26 23 21 20 18 16 15 13 13 14 17 17 15 12 10 7 3 1 5 8 10 12 15
53 53 49 45 45 47 56 51 41 39 43 37 34 31 32 32 32 30 26 24 22 24 27 26 24 23 22 18 15 14 14 15 18 19 17 15 13 10 5 3 4 8 11 12 14 16 19
49 47 48 47 50 57 58 49 44 47 43 37 34 34 34 35 33 31 28 25 26 27 26 23 22 20 18 14 13 14 15 20 20 18 15 13 10 7 7 8 10 11 13 15 16 17 20
51 49 49 54 59 62 56 48 47 51 41 40 38 38 38 38 34 31 29 28 28 26 24 23 21 18 15 14 16 16 19 19 17 16 15 13 10 10 11 13 15 15 15 16 19 24 27
51 54 56 61 64 61 53 51 53 49 43 43 41 39 39 37 34 32 30 28 26 24 24 24 20 17 15 14 16 17 18 18 18 15 14 12 13 15 17 17 16 17 19 21 25 28 29
57 58 63 66 65 58 52 55 57 47 44 43 40 39 42 36 34 34 30 27 25 24 25 24 21 19 17 16 16 17 19 19 17 16 16 16 18 19 19 21 20 20 21 26 29 28 32
61 64 70 67 62 56 55 60 54 47 45 44 43 43 42 40 35 32 31 28 25 24 23 24 22 21 20 17 15 16 16 14 14 15 17 18 19 20 22 22 23 24 26 29 28 32 37
65 72 69 66 59 54 59 61 54 49 45 44 43 43 43 40 37 33 32 30 27 25 26 24 23 22 20 18 17 16 16 18 19 19 18 20 21 21 24 23 24 30 30 28 34 40 43
70 72 68 64 57 55 63 61 53 51 49 48 44 42 44 40 38 35 32 33 30 27 27 26 25 23 19 18 19 19 20 19 18 20 22 23 24 25 27 27 26 31 35 34 38 45 48
72 70 67 60 56 57 65 62 54 51 49 49 46 44 45 43 40 33 32 31 31 30 29 28 26 23 22 21 22 22 21 21 22 25 27 28 29 29 28 28 28 37 41 42 45 51 54
71 70 65 57 55 59 65 60 53 48 49 48 48 46 46 45 38 34 32 30 31 31 32 32 29 27 26 26 24 25 24 26 27 28 30 28 26 28 31 34 35 42 47 50 52 55 61
72 68 61 52 53 60 64 58 52 47 47 48 47 47 47 43 41 38 33 33 33 32 32 32 32 32 30 29 28 29 29 30 30 29 30 29 30 33 36 38 40 49 52 56 56 60 65
70 66 57 51 54 60 65 60 53 46 41 43 45 47 46 44 40 38 38 36 36 35 33 33 33 34 34 33 33 34 31 31 33 35 38 38 37 40 43 48 49 56 57 56 62 65 69
66 61 55 50 54 60 62 62 53 48 43 40 46 45 45 42 40 37 36 35 36 36 36 35 35 37 36 37 38 38 36 36 39 38 41 40 45 48 54 58 59 60 60 63 66 70 71

GFSGBSN_250_spd_024.txt.gz
Wind_Speed
73 75 74 73 73 70 70 71 67 67 66 64 65 66 69 52 47 39 38 37 37 38 37 35 35 36 38 39 41 41 39 34 34 31 29 24 30 31 31 31 34 36 39 41 44 43 48
76 76 80 77 73 74 76 66 63 62 63 64 64 62 66 51 43 37 39 39 35 33 33 31 33 33 34 37 38 38 36 33 32 31 26 21 27 28 28 31 31 35 39 41 44 47 48
78 81 85 78 80 76 76 63 56 60 62 61 67 64 58 42 41 39 41 38 31 27 27 28 28 31 32 33 34 34 35 34 34 32 25 21 24 29 31 31 32 35 37 41 42 45 47
81 84 88 82 82 81 71 60 55 57 54 58 58 59 47 39 38 43 39 30 26 22 22 21 22 22 24 28 30 33 35 32 34 29 26 29 29 31 32 31 32 33 34 40 41 44 48
88 87 89 87 83 83 62 58 56 55 51 50 54 51 43 37 40 36 29 24 20 18 15 14 16 18 21 24 27 30 33 35 33 29 27 29 29 30 34 35 34 34 31 32 38 47 50
92 94 92 89 88 84 59 55 57 52 46 45 48 44 37 39 34 26 20 16 13 12 11 12 14 16 20 22 27 30 32 35 31 28 28 27 27 25 28 28 28 30 31 35 36 40 45
98 101 98 85 85 78 58 51 53 53 38 41 43 36 34 37 21 15 12 13 12 12 13 13 15 18 19 21 23 25 25 23 22 23 23 20 20 24 26 28 32 31 30 31 37 41 44
106 97 89 78 71 69 51 51 48 46 35 36 36 32 32 29 14 11 12 14 15 14 14 15 17 19 23 24 26 25 24 23 26 26 24 23 27 29 29 29 29 30 30 28 31 34 36
98 85 77 74 67 59 43 53 46 42 30 33 31 31 31 22 14 14 12 13 13 14 15 16 16 18 20 23 24 26 25 25 25 24 24 26 26 27 28 30 29 27 24 25 28 30 29
81 73 66 70 72 59 46 55 44 35 27 29 25 30 30 19 15 15 14 15 14 15 16 16 17 18 20 22 22 21 22 23 23 25 26 26 25 25 25 23 23 23 23 24 24 24 24
70 74 70 70 65 61 47 57 39 32 24 24 24 27 32 19 17 15 15 15 15 15 15 16 18 19 21 20 21 22 21 22 22 22 22 21 21 22 23 24 21 20 19 18 18 17 18
67 69 69 67 62 59 51 52 35 31 23 22 25 27 29 22 19 17 17 19 18 19 19 18 18 19 19 19 20 22 21 20 20 18 18 19 19 20 19 17 15 15 16 15 14 13 16
72 72 68 65 60 56 50 51 38 34 24 24 27 27 24 25 21 18 18 18 18 21 20 21 22 23 22 23 20 19 19 19 19 18 17 19 18 16 16 14 13 14 12 11 13 14 14
84 73 71 66 63 54 54 46 34 34 24 26 29 30 26 27 22 21 21 20 20 21 23 23 22 23 22 23 20 19 19 18 16 16 15 14 13 14 15 15 14 13 11 10 9 8 8
89 72 71 69 66 56 54 47 35 36 26 27 32 31 29 27 24 24 22 22 23 23 25 24 23 22 20 18 18 16 15 14 15 15 14 15 17 16 14 12 10 10 10 7 6 5 6
79 73 69 71 69 58 51 51 39 40 30 30 37 35 33 28 27 25 24 25 25 24 23 21 19 18 19 20 18 18 18 16 16 15 15 16 15 14 13 13 11 8 5 3 5 8 11
69 66 66 71 66 57 51 48 44 38 37 37 40 37 32 30 30 27 25 25 23 23 22 21 21 20 19 19 18 17 14 14 14 14 15 14 15 15 13 9 6 3 5 7 9 11 13
67 65 59 61 62 57 51 47 46 43 43 43 41 36 32 33 30 29 27 25 24 24 22 21 20 20 20 18 14 13 14 15 16 17 17 16 13 11 9 6 5 7 10 12 12 14 16
67 55 56 60 56 59 51 50 49 50 47 46 43 39 35 35 33 32 30 27 26 26 25 24 24 23 20 18 15 15 16 17 19 19 19 17 14 10 6 6 9 13 15 16 17 19 21
56 52 50 52 53 54 51 52 55 53 51 49 48 40 38 37 36 35 33 29 28 29 27 27 26 24 21 16 15 16 16 19 19 19 17 14 11 9 9 12 15 17 19 19 20 22 24
55 51 49 51 52 53 55 57 57 56 51 52 46 38 41 37 36 35 33 30 30 29 28 28 25 22 19 17 16 18 19 20 19 17 15 13 12 12 14 17 18 20 22 24 26 27 29
53 54 53 53 56 58 60 62 59 56 52 53 45 43 43 44 40 39 35 33 31 28 27 28 25 22 19 16 15 15 15 15 15 15 15 15 17 18 19 19 21 23 27 26 29 30 29
56 57 56 58 60 62 64 62 60 52 55 52 48 48 47 44 39 37 36 35 31 29 28 27 25 22 18 18 16 15 15 16 17 19 20 20 20 20 22 22 22 29 30 29 31 30 35
57 57 60 63 65 67 65 62 56 59 56 52 51 49 46 43 41 41 39 35 31 29 27 26 26 24 21 20 20 21 21 21 22 24 23 24 25 24 26 28 25 34 36 33 29 35 40
58 61 63 67 70 67 64 60 57 62 56 54 52 49 47 47 46 41 38 36 32 29 30 27 25 25 24 24 25 25 25 26 26 26 27 28 28 29 30 33 29 34 40 39 35 40 49
63 65 69 73 71 65 61 59 63 57 55 54 51 49 49 48 44 42 37 36 35 33 29 27 27 25 25 26 27 26 25 26 25 29 31 31 32 34 33 28 27 37 42 41 42 44 55
66 70 73 71 68 63 59 61 62 57 55 53 52 51 49 47 44 43 40 38 37 35 33 31 30 28 29 28 29 29 29 29 31 34 37 36 37 38 36 33 33 40 41 46 50 53 59
69 75 70 67 62 59 59 63 60 55 55 54 52 51 49 48 46 44 42 40 38 35 32 30 30 32 33 33 33 33 32 33 35 37 39 39 39 40 40 42 40 44 49 54 57 60 62
72 70 66 62 58 55 59 64 59 55 55 53 54 51 47 49 48 45 44 41 38 34 34 31 32 34 34 34 35 36 37 38 39 40 43 43 46 46 50 50 49 51 56 58 62 65 68

GFSGBSN_250_spd_027.txt.gz
Wind_Speed
76 76 77 79 78 73 66 63 66 66 68 73 77 75 68 70 70 67 62 47 39 37 36 38 39 37 33 36 35 37 40 39 38 36 31 30 30 29 27 25 26 24 28 30 34 34 41
78 82 80 83 78 76 67 64 66 69 72 74 77 77 64 70 70 69 59 42 41 40 37 35 34 31 30 30 31 31 34 36 39 36 30 30 27 26 24 25 26 28 26 29 31 34 35
81 84 87 87 85 76 70 65 70 69 74 78 78 75 65 68 72 66 47 42 44 39 34 31 30 26 25 25 28 29 32 35 39 32 28 26 21 24 27 26 27 27 24 25 32 37 33
87 89 87 85 87 81 70 72 74 72 74 81 76 74 65 64 63 59 44 41 38 33 29 28 24 18 21 22 25 25 30 32 32 28 28 29 27 25 26 25 23 24 27 25 26 32 30
95 91 89 82 78 79 72 73 77 78 74 80 72 69 61 63 61 49 39 37 32 29 23 18 14 12 15 17 22 24 27 29 30 29 33 29 25 23 25 25 25 23 20 22 18 18 26
97 87 81 84 78 80 75 77 79 81 76 75 67 61 55 57 52 41 32 31 25 17 12 12 11 12 11 14 19 25 28 31 32 31 31 27 26 24 25 26 25 23 23 20 24 26 27
90 89 81 81 81 77 81 79 83 84 77 69 60 54 54 56 47 32 26 22 13 12 11 11 10 10 11 13 19 24 27 29 30 32 29 26 25 25 24 23 27 25 28 30 33 33 33
88 88 85 83 84 84 82 83 83 80 74 61 54 46 46 49 36 26 22 17 13 11 9 8 8 10 12 14 18 23 24 25 28 25 22 21 21 20 19 23 26 27 30 32 32 32 33
92 88 89 91 91 91 91 87 85 74 67 57 46 37 40 41 26 24 21 14 12 13 10 10 10 11 13 17 21 23 22 22 22 22 24 26 25 25 24 24 24 24 25 27 29 30 30
101 99 97 96 96 95 94 85 83 65 62 53 42 34 34 32 23 24 21 14 14 14 11 9 10 12 15 17 20 25 28 27 26 25 26 25 22 21 22 22 22 22 24 25 25 26 27
116 111 111 105 97 95 93 77 80 58 59 49 42 29 30 26 23 22 20 15 15 14 11 10 11 12 15 19 20 22 22 23 24 24 24 23 23 22 23 23 21 21 22 23 23 24 25
130 123 112 103 92 90 83 77 75 60 58 47 35 28 27 22 19 21 20 16 16 15 13 14 15 16 17 19 20 21 21 22 22 22 21 22 21 21 19 18 19 20 22 22 23 23 25
118 114 111 92 79 76 73 72 66 62 53 44 30 27 24 19 18 20 20 19 16 16 15 14 15 16 17 20 21 21 21 22 22 22 22 22 20 19 19 19 20 23 22 20 22 23 21
107 106 102 84 77 69 70 68 63 56 48 35 29 26 21 17 17 20 21 20 16 16 18 18 17 18 20 20 21 20 20 18 19 19 19 18 17 17 17 19 21 19 17 16 13 10 8
101 101 99 88 78 72 73 68 63 52 46 34 27 24 23 17 18 23 21 19 17 18 19 21 20 22 23 23 22 22 21 22 21 20 18 17 18 17 15 12 11 11 11 9 9 7 5
93 95 95 87 81 75 71 69 63 52 42 35 29 26 23 21 20 24 23 20 20 20 21 22 21 21 22 23 21 20 18 17 15 15 15 14 14 13 12 13 13 14 13 11 7 6 8
80 87 91 84 79 77 74 71 62 55 44 38 29 27 25 26 25 25 26 23 23 23 24 24 23 23 20 19 18 14 13 13 13 13 13 12 12 13 14 16 16 14 9 7 6 6 8
73 80 81 75 73 75 76 71 64 57 46 41 30 31 28 30 29 29 28 26 26 26 25 23 22 20 19 18 16 16 14 13 13 13 13 14 16 18 19 16 12 7 4 4 7 9 12
68 74 74 69 63 72 78 74 66 57 48 43 35 36 33 33 33 32 31 30 30 28 26 24 21 20 18 18 17 14 13 12 13 14 17 19 19 19 15 10 7 6 7 9 11 14 17
71 74 69 59 64 72 74 72 68 62 56 48 42 42 39 38 37 37 35 33 31 28 27 25 23 21 21 19 16 14 15 14 15 17 18 17 15 12 10 9 8 9 11 14 17 19 21
71 72 67 61 61 66 70 71 72 66 59 55 45 43 43 41 37 41 38 34 31 30 30 27 25 24 22 20 16 15 14 16 18 17 17 15 14 12 11 12 12 13 15 19 21 24 26
65 61 60 62 64 66 66 71 71 67 61 55 50 46 47 47 46 44 38 35 32 32 32 29 27 26 23 20 17 17 16 18 19 17 16 15 15 16 16 15 15 18 22 25 26 29 29
59 60 61 56 58 62 66 69 68 62 61 54 53 54 53 48 46 42 40 38 36 35 34 31 29 27 25 22 20 19 18 19 19 19 19 20 21 19 18 19 19 25 30 30 32 32 32
62 61 56 53 58 66 65 64 63 60 59 60 56 56 54 50 48 44 42 39 37 36 34 32 30 28 25 23 22 21 21 21 21 21 21 23 23 22 24 25 24 32 36 37 35 34 34
59 53 53 56 57 60 63 63 64 63 65 57 61 60 55 53 50 46 41 40 39 38 35 32 31 31 27 24 23 23 23 23 24 26 26 27 27 26 28 30 30 35 39 42 40 37 38
53 53 55 58 60 62 64 66 64 66 62 64 61 59 56 54 49 48 45 42 40 38 36 32 31 30 29 27 25 25 26 26 27 28 29 30 29 29 33 32 34 41 44 44 42 40 42
59 60 63 63 66 66 64 64 67 65 62 64 59 59 57 53 51 47 43 42 42 39 35 31 30 30 29 28 28 27 27 27 30 32 32 32 32 34 36 36 39 44 45 46 47 47 48
64 64 63 65 65 63 65 66 65 59 65 60 60 60 57 54 52 47 44 44 43 40 35 33 31 30 30 30 29 28 29 31 33 34 36 37 37 40 42 44 44 44 46 48 51 53 56
62 61 62 64 64 66 65 61 57 65 61 60 58 57 56 54 52 48 46 44 43 40 37 36 34 33 33 31 31 32 34 34 36 37 40 41 43 44 47 49 49 48 47 51 54 58 61

GFSGBSN_250_spd_030.txt.gz
Wind_Speed
60 64 62 65 63 61 64 66 70 71 73 74 69 75 70 74 78 83 80 74 71 72 57 52 42 37 34 34 33 31 31 38 40 39 35 30 30 29 26 27 25 25 25 26 28 29 34
65 69 68 68 65 64 67 71 73 73 72 69 64 72 68 72 77 83 79 70 67 63 61 51 37 32 28 27 25 26 27 33 39 39 37 31 26 24 25 25 26 24 24 25 26 27 30
74 74 72 72 66 68 72 74 75 74 74 77 63 69 69 73 77 83 81 72 63 67 53 37 31 26 22 22 22 21 24 30 31 30 32 26 22 24 29 26 25 24 24 21 23 25 23
75 76 73 74 72 73 75 76 77 73 73 75 71 68 71 74 77 82 79 67 61 61 44 32 27 21 18 18 20 20 22 25 26 28 28 27 29 30 27 27 27 27 26 24 21 21 24
80 78 76 78 78 80 79 76 76 72 76 69 72 68 71 73 78 80 76 66 59 45 33 24 20 16 15 16 17 18 24 24 27 30 31 28 32 32 28 28 29 27 27 27 22 18 19
84 83 85 86 84 83 81 79 77 72 74 70 72 68 71 76 77 77 72 58 53 34 25 20 18 15 13 13 15 20 23 27 30 32 31 32 34 31 30 31 29 26 25 23 22 23 21
89 89 91 89 89 86 81 82 75 72 72 69 70 72 72 75 76 73 67 52 41 27 24 19 16 14 11 11 14 20 26 29 33 35 34 39 35 30 29 30 29 31 27 24 23 24 22
97 94 95 94 92 88 86 80 75 71 73 72 70 72 75 76 73 66 62 48 37 22 20 16 13 11 9 8 12 20 25 30 34 32 38 35 31 29 27 28 30 26 24 23 24 22 23
99 97 95 95 95 86 82 82 76 74 71 72 73 74 73 76 69 61 55 44 32 19 19 14 12 10 7 9 12 16 24 30 32 36 39 33 28 28 27 23 21 23 27 28 26 27 28
97 94 91 90 93 91 85 83 80 80 80 76 73 76 74 76 64 56 48 39 27 17 17 14 11 9 8 10 16 20 21 27 29 33 30 27 26 24 24 25 24 25 26 27 27 30 31
109 103 98 96 88 91 89 85 82 83 81 80 79 76 73 73 62 54 43 39 23 15 16 13 11 10 11 13 18 25 30 30 32 31 31 29 28 29 25 23 25 27 26 27 28 30 31
117 115 110 105 97 93 89 86 85 86 82 80 84 79 74 67 59 49 38 32 20 15 16 15 12 12 13 15 17 22 27 29 30 29 27 27 26 25 23 23 23 24 26 27 27 26 25
125 124 122 109 108 101 95 90 90 88 86 84 85 82 75 65 50 42 37 23 18 16 14 12 13 14 16 18 20 23 24 25 27 28 27 27 26 23 22 23 22 22 22 21 20 22 23
128 119 117 116 109 104 99 95 94 92 88 87 89 87 77 63 49 39 31 22 16 17 15 14 13 16 19 21 23 25 26 27 27 27 25 23 22 21 22 22 21 20 19 21 22 19 17
106 110 108 111 115 109 105 98 101 97 89 86 85 77 67 52 48 35 27 20 16 18 17 16 16 17 20 21 22 23 23 22 22 23 23 23 22 22 20 18 17 18 20 22 20 20 19
105 101 101 105 109 111 108 103 101 89 83 85 78 68 52 46 42 31 24 19 18 19 19 21 21 21 21 21 22 22 21 20 21 20 20 20 20 19 19 20 21 23 20 17 17 15 12
102 104 104 98 105 111 111 110 102 99 91 79 68 55 45 41 38 31 25 20 21 20 19 20 22 22 21 20 19 19 19 19 18 17 17 18 18 19 19 19 17 15 15 16 14 11 11
91 94 96 96 99 104 110 110 105 99 84 75 64 51 45 41 34 32 25 19 24 22 21 23 23 22 21 21 20 20 19 18 17 17 16 16 17 18 17 18 19 19 16 14 12 13 14
79 87 93 94 101 103 102 101 101 91 79 76 61 53 47 43 33 33 30 24 27 25 24 25 24 24 23 22 21 19 18 17 15 14 15 16 18 20 22 21 19 17 15 14 14 15 18
68 75 84 92 94 99 96 93 89 83 82 78 62 58 50 43 32 37 33 28 31 28 29 28 27 25 22 21 20 20 17 16 15 16 17 20 22 23 20 17 17 16 14 15 17 19 22
69 74 79 84 92 90 85 81 79 81 83 78 65 60 49 41 34 40 35 34 34 31 32 31 27 24 24 26 25 21 17 16 16 19 22 23 23 21 19 17 15 15 17 19 21 22 25
65 71 75 82 86 75 67 77 77 80 81 75 67 60 50 44 42 44 38 37 36 35 35 32 28 27 28 27 23 18 17 17 20 21 22 22 22 21 20 20 19 19 22 23 24 25 29
65 70 75 77 70 66 73 72 73 77 76 72 69 62 56 45 46 47 41 41 40 38 37 34 30 31 30 27 23 21 20 20 21 23 24 23 23 23 24 22 20 24 27 26 28 31 33
61 64 64 65 67 70 70 69 73 73 74 75 72 66 58 49 52 49 48 47 44 42 38 35 33 33 30 27 26 24 23 24 25 26 26 27 27 27 27 25 24 31 31 32 33 35 37
53 58 62 66 66 64 64 66 71 76 79 77 74 70 61 56 56 54 52 49 45 41 38 36 36 35 32 30 28 26 27 28 28 28 29 30 29 29 29 30 30 33 36 39 37 39 40
53 60 63 64 60 60 60 66 70 77 78 77 75 70 63 59 59 56 53 50 45 41 39 39 37 36 34 32 31 29 30 30 31 31 32 32 32 32 33 33 34 39 40 40 41 42 46
60 61 60 61 60 59 60 66 67 75 76 74 72 69 67 64 60 57 53 48 45 43 41 41 39 37 37 34 33 31 31 30 32 32 32 32 33 34 36 37 39 41 42 43 45 47 49
56 56 55 56 55 58 63 67 70 74 73 73 70 71 67 65 58 57 54 48 46 44 43 43 39 39 37 37 36 34 32 33 34 34 34 34 35 37 38 41 41 43 44 46 49 52 54
58 58 57 57 60 64 68 70 72 70 68 68 71 69 68 63 60 59 55 50 49 45 43 42 40 37 38 38 36 34 35 35 35 35 35 37 37 41 44 46 46 47 49 52 53 54 57